WA3WZR Weather Reports


time (UTC)temp
F
wind
direction
speed
knots
gust
knots
rain 1hr
in
rain 24hr
in
rain mn
in
humidity
%
barometer
mb
20260504050352 44 284 0.0 0.0 0.00 0.00 0.00 78 1014.5
20260504045830 44 284 0.0 0.0 0.00 0.00 0.00 77 1014.5
20260504045330 44 284 0.0 0.0 0.00 0.00 0.00 76 1014.5
20260504044834 44 284 0.0 0.0 0.00 0.00 0.00 76 1014.5
20260504044353 44 284 0.0 0.0 0.00 0.00 0.00 76 1014.5
20260504043832 44 284 0.0 0.0 0.00 0.00 0.00 75 1014.5
20260504043334 44 284 0.0 0.0 0.00 0.00 0.00 74 1014.5
20260504042854 44 284 0.0 0.0 0.00 0.00 0.00 75 1014.4
20260504042333 44 284 0.0 0.0 0.00 0.00 0.00 75 1014.3
20260504041835 44 284 0.0 0.0 0.00 0.00 0.00 74 1014.3
20260504041333 45 284 0.0 0.0 0.00 0.00 0.00 74 1014.3
20260504040833 45 284 0.0 0.0 0.00 0.00 0.00 73 1014.4
20260504040333 45 284 0.0 0.0 0.00 0.00 0.00 73 1014.4
20260504035846 45 284 0.0 0.0 0.00 0.00 0.00 73 1014.3
20260504035326 45 284 0.0 0.0 0.00 0.00 0.00 73 1014.3
20260504034847 45 284 0.0 0.0 0.00 0.00 0.00 72 1014.3
20260504034326 46 284 0.0 0.0 0.00 0.00 0.00 71 1014.3
20260504033826 46 284 0.0 0.0 0.00 0.00 0.00 71 1014.4
20260504033350 46 284 0.0 0.0 0.00 0.00 0.00 70 1014.4
20260504032828 46 284 0.0 0.0 0.00 0.00 0.00 70 1014.3
20260504032329 46 284 0.0 0.0 0.00 0.00 0.00 69 1014.4
20260504031830 46 284 0.0 0.0 0.00 0.00 0.00 69 1014.4
20260504031345 47 284 0.0 0.0 0.00 0.00 0.00 68 1014.3
20260504030848 47 284 0.0 0.0 0.00 0.00 0.00 67 1014.4
20260504030329 47 284 0.0 0.0 0.00 0.00 0.00 67 1014.4
20260504025829 47 284 0.0 0.0 0.00 0.00 0.00 66 1014.5
20260504025330 48 284 0.0 0.0 0.00 0.00 0.00 66 1014.5
20260504024833 48 284 0.0 0.0 0.00 0.00 0.00 66 1014.5
20260504024332 48 284 0.0 0.0 0.00 0.00 0.00 66 1014.5
20260504023853 48 284 0.0 0.0 0.00 0.00 0.00 65 1014.5
20260504023335 48 284 0.0 0.0 0.00 0.00 0.00 64 1014.5
20260504022835 49 284 0.0 0.0 0.00 0.00 0.00 63 1014.5
20260504022335 49 284 0.0 0.0 0.00 0.00 0.00 64 1014.5
20260504021837 49 284 0.0 0.0 0.00 0.00 0.00 65 1014.5
20260504020856 50 284 0.0 0.0 0.00 0.00 0.00 61 1014.6
20260504020318 50 284 0.0 0.0 0.00 0.00 0.00 61 1014.5
20260504015819 50 284 0.0 0.0 0.00 0.00 0.00 60 1014.5
20260504015319 50 284 0.0 0.0 0.00 0.00 0.00 60 1014.5
20260504014822 50 284 0.0 0.0 0.00 0.00 0.00 60 1014.5
20260504014342 51 284 0.0 0.0 0.00 0.00 0.00 59 1014.5
20260504013820 51 284 0.0 0.0 0.00 0.00 0.00 59 1014.5
20260504013322 51 284 0.0 0.0 0.00 0.00 0.00 57 1014.4
20260504012819 51 284 0.0 0.0 0.00 0.00 0.00 58 1014.3
20260504012319 52 284 0.0 0.0 0.00 0.00 0.00 58 1014.3
20260504011821 52 284 0.0 0.9 0.00 0.00 0.00 56 1014.3
20260504011321 52 284 0.0 0.9 0.00 0.00 0.00 56 1014.3
20260504010821 52 284 0.0 0.0 0.00 0.00 0.00 55 1014.3
20260504010322 52 284 0.0 0.0 0.00 0.00 0.00 55 1014.3
20260504005843 53 284 0.0 0.0 0.00 0.00 0.00 55 1014.3
20260504005319 53 284 0.0 0.9 0.00 0.00 0.00 54 1014.2
20260504004821 53 284 0.0 0.9 0.00 0.00 0.00 53 1014.2
20260504004337 53 284 0.0 0.9 0.00 0.00 0.00 54 1014.3
20260504003817 53 284 0.0 0.9 0.00 0.00 0.00 54 1014.2
20260504003319 54 284 0.0 0.9 0.00 0.00 0.00 54 1014.3
20260504002839 54 284 0.0 0.0 0.00 0.00 0.00 52 1014.2
20260504002320 54 284 0.0 1.7 0.00 0.00 0.00 52 1014.2
20260504001821 54 284 0.0 1.7 0.00 0.00 0.00 51 1014.2
20260504001322 55 284 0.0 1.7 0.00 0.00 0.00 52 1014.2
20260504000822 55 284 0.0 0.9 0.00 0.00 0.00 50 1014.2
20260504000323 55 284 0.0 0.9 0.00 0.00 0.00 50 1014.1
20260503235823 55 284 0.0 1.7 0.00 0.00 0.00 49 1014.2
20260503235323 55 284 0.0 1.7 0.00 0.00 0.00 49 1014.1
20260503234825 56 284 0.0 1.7 0.00 0.00 0.00 49 1014.2
20260503234345 56 284 0.0 1.7 0.00 0.00 0.00 48 1014.2
20260503233824 56 284 0.0 1.7 0.00 0.00 0.00 48 1014.2
20260503233326 56 258 0.0 1.7 0.00 0.00 0.00 47 1014.3
20260503232826 56 257 0.0 3.5 0.00 0.00 0.00 47 1014.2
20260503232326 56 263 0.9 7.0 0.00 0.00 0.00 47 1014.3
20260503231826 56 237 2.6 7.0 0.00 0.00 0.00 45 1014.3
20260503231325 56 289 2.6 7.0 0.00 0.00 0.00 45 1014.3
20260503230826 57 253 1.7 6.1 0.00 0.00 0.00 46 1014.3
20260503230327 57 252 3.5 6.1 0.00 0.00 0.00 46 1014.4
20260503225847 57 346 0.9 5.2 0.00 0.00 0.00 47 1014.4
20260503225326 57 219 1.7 5.2 0.00 0.00 0.00 46 1014.4
20260503224848 57 300 0.9 3.5 0.00 0.00 0.00 46 1014.4
20260503224327 57 263 0.9 7.8 0.00 0.00 0.00 46 1014.4
20260503223828 57 266 4.3 7.8 0.00 0.00 0.00 45 1014.4
20260503223331 57 290 2.6 6.1 0.00 0.00 0.00 46 1014.5
20260503222829 57 84 0.9 5.2 0.00 0.00 0.00 45 1014.5
20260503222350 57 135 1.7 9.6 0.00 0.00 0.00 45 1014.4
20260503221828 58 236 0.9 9.6 0.00 0.00 0.00 44 1014.5
20260503221328 58 290 1.7 7.0 0.00 0.00 0.00 46 1014.5
20260503220829 58 195 0.9 7.0 0.00 0.00 0.00 44 1014.5
20260503220331 58 266 3.5 8.7 0.00 0.00 0.00 45 1014.5
20260503215852 58 249 6.1 8.7 0.00 0.00 0.00 44 1014.5
20260503215330 58 100 2.6 11.3 0.00 0.00 0.00 42 1014.4
20260503214830 58 225 3.5 9.6 0.00 0.00 0.00 44 1014.6
20260503214331 58 268 3.5 9.6 0.00 0.00 0.00 44 1014.5
20260503213832 59 272 3.5 8.7 0.00 0.00 0.00 44 1014.4
20260503213334 59 293 4.3 8.7 0.00 0.00 0.00 45 1014.4
20260503212833 58 254 2.6 6.1 0.00 0.00 0.00 44 1014.4
20260503212334 59 233 3.5 7.0 0.00 0.00 0.00 43 1014.4
20260503211836 59 94 1.7 7.0 0.00 0.00 0.00 44 1014.3
20260503211334 59 250 4.3 7.0 0.00 0.00 0.00 44 1014.4
20260503210836 59 267 4.3 8.7 0.00 0.00 0.00 45 1014.4
20260503210337 59 283 4.3 8.7 0.00 0.00 0.00 44 1014.4
20260503205852 58 266 3.5 9.6 0.00 0.00 0.00 45 1014.5
20260503205332 58 264 2.6 9.6 0.00 0.00 0.00 46 1014.6
20260503204834 58 298 2.6 13.0 0.00 0.00 0.00 44 1014.6
20260503204317 58 263 5.2 12.2 0.00 0.00 0.00 44 1014.7
20260503203818 58 241 2.6 12.2 0.00 0.00 0.00 44 1014.7
20260503203334 58 242 4.3 12.2 0.00 0.00 0.00 46 1014.8
20260503202854 58 282 2.6 6.1 0.00 0.00 0.00 44 1014.9
20260503202333 59 231 1.7 9.6 0.00 0.00 0.00 45 1014.9
20260503201834 59 254 3.5 12.2 0.00 0.00 0.00 46 1015.0
20260503201335 59 255 5.2 12.2 0.00 0.00 0.00 45 1015.1
20260503200833 58 223 5.2 9.6 0.00 0.00 0.00 45 1015.2
20260503200334 58 256 1.7 12.2 0.00 0.00 0.00 45 1015.2
20260503195834 58 232 3.5 12.2 0.00 0.00 0.00 45 1015.3
20260503195335 58 213 4.3 9.6 0.00 0.00 0.00 44 1015.3
20260503194835 58 257 4.3 9.6 0.00 0.00 0.00 45 1015.4
20260503194336 59 258 3.5 10.4 0.00 0.00 0.00 44 1015.5
20260503193856 59 264 2.6 10.4 0.00 0.00 0.00 48 1015.5
20260503193356 59 263 3.5 7.0 0.00 0.00 0.00 45 1015.5
20260503192834 58 263 2.6 7.0 0.00 0.00 0.00 47 1015.5
20260503192352 58 227 0.9 9.6 0.00 0.00 0.00 46 1015.6
20260503191853 58 255 4.3 9.6 0.00 0.00 0.00 49 1015.7
20260503191332 58 288 3.5 9.6 0.00 0.00 0.00 49 1015.7
20260503190831 58 295 1.7 9.6 0.00 0.00 0.00 47 1015.9
20260503190332 57 327 4.3 9.6 0.00 0.00 0.00 46 1015.9
20260503185832 57 250 5.2 8.7 0.00 0.00 0.00 48 1016.0
20260503185331 57 289 4.3 8.7 0.00 0.00 0.00 49 1016.1
20260503184833 57 288 2.6 7.0 0.00 0.00 0.00 46 1016.1
20260503184332 57 274 2.6 8.7 0.00 0.00 0.00 46 1016.2
20260503183853 58 217 1.7 12.2 0.00 0.00 0.00 47 1016.3
20260503183334 58 274 3.5 9.6 0.00 0.00 0.00 49 1016.3
20260503182832 57 252 4.3 9.6 0.00 0.00 0.00 46 1016.4
20260503182332 58 245 0.9 10.4 0.00 0.00 0.00 51 1016.3
20260503181833 58 226 6.1 11.3 0.00 0.00 0.00 44 1016.5
20260503181353 59 277 2.6 12.2 0.00 0.00 0.00 49 1016.5
20260503180832 59 252 4.3 12.2 0.00 0.00 0.00 47 1016.5
20260503180334 58 123 5.2 7.8 0.00 0.00 0.00 47 1016.5
20260503175834 59 267 2.6 8.7 0.00 0.00 0.00 45 1016.5
20260503175334 59 138 2.6 9.6 0.00 0.00 0.00 50 1016.6
20260503174834 59 252 3.5 9.6 0.00 0.00 0.00 49 1016.7
20260503174332 58 292 2.6 8.7 0.00 0.00 0.00 47 1016.7
20260503173830 58 241 2.6 8.7 0.00 0.00 0.00 47 1016.8
20260503173332 58 250 1.7 9.6 0.00 0.00 0.00 47 1016.8
20260503172852 58 281 4.3 10.4 0.00 0.00 0.00 47 1017.0
20260503172333 58 245 5.2 10.4 0.00 0.00 0.00 49 1017.0
20260503171855 58 316 0.9 6.1 0.00 0.00 0.00 47 1016.9
20260503171332 58 299 1.7 7.8 0.00 0.00 0.00 47 1017.0
20260503170832 57 294 3.5 7.0 0.00 0.00 0.00 49 1017.2
20260503170332 57 254 1.7 7.8 0.00 0.00 0.00 48 1017.2
20260503150832 51 273 4.3 7.8 0.00 0.00 0.00 54 1018.1
20260503150354 51 266 4.3 8.7 0.00 0.00 0.00 54 1018.1
20260503131325 44 259 3.5 7.8 0.00 0.00 0.00 73 1018.6
20260503130823 43 360 3.5 7.0 0.00 0.00 0.00 75 1018.6
20260503130325 43 246 2.6 7.8 0.00 0.00 0.00 76 1018.6
20260503110823 34 267 0.0 0.0 0.00 0.00 0.00 92 1017.9
20260503110324 34 267 0.0 0.0 0.00 0.00 0.00 92 1017.9
20260503090355 36 298 0.0 0.0 0.00 0.00 0.00 91 1017.1
20260503081319 36 298 0.0 0.0 0.00 0.00 0.00 92 1017.0
20260503080818 36 298 0.0 0.0 0.00 0.00 0.00 92 1017.0
20260503080320 36 298 0.0 0.0 0.00 0.00 0.00 92 1017.0
20260503072822 35 298 0.0 0.0 0.00 0.00 0.00 92 1016.8
20260503072322 35 298 0.0 0.0 0.00 0.00 0.00 92 1016.8
20260503071825 35 298 0.0 0.0 0.00 0.00 0.00 92 1016.8
20260503071325 35 298 0.0 0.0 0.00 0.00 0.00 92 1016.8
20260503070824 35 298 0.0 0.0 0.00 0.00 0.00 91 1016.7
20260503070324 35 298 0.0 0.0 0.00 0.00 0.00 91 1016.7
20260503060327 36 298 0.0 0.0 0.00 0.00 0.00 88 1016.8
20260503054829 36 298 0.0 0.0 0.00 0.01 0.00 87 1016.8
20260503054329 36 298 0.0 0.0 0.00 0.01 0.00 86 1016.8
20260503053828 36 298 0.0 0.0 0.00 0.01 0.00 86 1016.8
20260503053329 36 298 0.0 0.0 0.00 0.01 0.00 85 1016.8